Location: Alexandria
(38.8050°N, 77.0470°W)
Time: 10:36:31
(UTC-05:00)

Tiangong 2 - Pass Details

Date: 14 February 2018
Orbit: 384 x 389 km, 42.8° (Epoch: 24 February)

Event Time Altitude Azimuth Distance (km) Brightness Sun altitude
Rises 19:24:11 0° 276° (W) 2,261 6.6 -19.9°
Reaches altitude 10° 19:26:21 10° 285° (WNW) 1,407 5.0 -20.4°
Enters shadow 19:29:01 37° 338° (NNW) 616 2.2 -20.9°
